Change the Weather History Date:

Friday, January 11, 2013

  Actual Average Record
Temperature  
Mean Temperature 43 °F 54 °F  
Max Temperature 53 °F 65 °F 83 °F (1983)
Min Temperature 32 °F 44 °F 32 °F (2013)
Degree Days  
Heating Degree Days 22 11  
Month to date heating degree days 142 121  
Since 1 July heating degree days 609 681  
Cooling Degree Days 0 0  
Month to date cooling degree days 0 0  
Year to date cooling degree days 0 0  
Moisture  
Dew Point 22 °F    
Average Humidity 48    
Maximum Humidity 69    
Minimum Humidity 26    
Precipitation  
Precipitation 0.00 in 0.12 in 1.86 in (2001)
Month to date precipitation 0.09 1.42  
Year to date precipitation 0.09 1.42  
Since 1 July precipitation 2.86 6.08  
Snow  
Snow 0.00 in - - ()
Month to date snowfall 0.0  
Year to date snowfall 0.0  
Since 1 July snowfall 0.0  
Snow Depth 0.00 in    
Sea Level Pressure  
Sea Level Pressure 30.10 in    
Wind  
Wind Speed 4 mph (SW)    
Max Wind Speed 14 mph    
Max Gust Speed 17 mph    
Visibility 10 miles    
Events      
T = Trace of Precipitation, MM = Missing Value Source: NWS Daily Summary

Daily Weather History Graph

Daily Weather History Graph

Search for Another Location

Airport or City:

Trip Planner

Search our weather history database for the weather conditions in past years. The results will help you decide how hot, cold, wet, or windy it might be!

Date:

Astronomy

Jan. 11, 2013 Rise Set
Actual Time 6:56 AM PST 5:00 PM PST
Civil Twilight 6:29 AM PST 5:28 PM PST
Nautical Twilight 5:58 AM PST 5:59 PM PST
Astronomical Twilight 5:28 AM PST 6:29 PM PST
Moon 6:35 AM PST (1/11) 5:21 PM PST (1/11)
Length of Visible Light 10h 59m
Length of Day
10h 04m
New Moon, 0% of the Moon is Illuminated
Jan 11
New Moon
Jan 18
First Quarter
Jan 26
Full
Feb 3
Last Quarter
Feb 9
New

Hourly Weather History & Observations

Time (PST) Temp. Windchill Dew Point Humidity Pressure Visibility Wind Dir Wind Speed Gust Speed Precip Events Conditions
12:53 AM 39.0 °F - 21.9 °F 50% 30.07 in 10.0 mi Calm Calm - N/A   Clear
1:53 AM 35.1 °F 30.1 °F 24.1 °F 64% 30.09 in 10.0 mi NE 5.8 mph - N/A   Clear
2:53 AM 35.1 °F - 24.1 °F 64% 30.11 in 10.0 mi Calm Calm - N/A   Clear
3:53 AM 35.1 °F - 24.1 °F 64% 30.13 in 10.0 mi Calm Calm - N/A   Clear
4:53 AM 34.0 °F 31.0 °F 24.1 °F 67% 30.14 in 10.0 mi NW 3.5 mph - N/A   Clear
5:53 AM 34.0 °F 28.0 °F 24.1 °F 67% 30.16 in 10.0 mi NNE 6.9 mph - N/A   Clear
6:53 AM 35.1 °F - 24.1 °F 64% 30.17 in 10.0 mi Calm Calm - N/A   Partly Cloudy
7:53 AM 37.0 °F 34.5 °F 26.1 °F 65% 30.18 in 10.0 mi ENE 3.5 mph - N/A   Partly Cloudy
8:53 AM 42.1 °F - 25.0 °F 51% 30.19 in 10.0 mi Calm Calm - N/A   Scattered Clouds
9:53 AM 44.1 °F 42.5 °F 23.0 °F 43% 30.19 in 10.0 mi SSW 3.5 mph - N/A   Partly Cloudy
10:53 AM 46.0 °F - 21.0 °F 37% 30.16 in 10.0 mi Calm Calm - N/A   Partly Cloudy
11:53 AM 48.2 °F - 21.2 °F 34% 30.10 in 10.0 mi NW 4.6 mph - N/A   Partly Cloudy
12:53 PM 50.0 °F - 21.0 °F 32% 30.09 in 10.0 mi West 5.8 mph - N/A   Partly Cloudy
1:53 PM 51.1 °F - 19.9 °F 29% 30.07 in 10.0 mi South 4.6 mph - N/A   Scattered Clouds
2:53 PM 52.0 °F - 19.9 °F 28% 30.06 in 10.0 mi South 6.9 mph - N/A   Scattered Clouds
3:53 PM 52.0 °F - 17.1 °F 25% 30.04 in 10.0 mi WSW 4.6 mph - N/A   Scattered Clouds
4:53 PM 50.0 °F - 19.0 °F 29% 30.04 in 10.0 mi SW 12.7 mph - N/A   Scattered Clouds
5:53 PM 46.9 °F - 23.0 °F 39% 30.04 in 10.0 mi South 10.4 mph - N/A   Scattered Clouds
6:53 PM 46.0 °F 43.1 °F 19.9 °F 35% 30.04 in 10.0 mi South 5.8 mph - N/A   Scattered Clouds
7:53 PM 43.0 °F 39.5 °F 23.0 °F 45% 30.06 in 10.0 mi East 5.8 mph - N/A   Partly Cloudy
8:53 PM 42.8 °F - 21.2 °F 42% 30.05 in 10.0 mi Calm Calm - N/A   Partly Cloudy
9:53 PM 41.0 °F - 21.9 °F 47% 30.08 in 10.0 mi Calm Calm - N/A   Partly Cloudy
10:53 PM 41.0 °F - 21.9 °F 47% 30.08 in 10.0 mi Calm Calm - N/A   Partly Cloudy
11:53 PM 37.9 °F - 21.9 °F 53% 30.08 in 10.0 mi Calm Calm - N/A   Partly Cloudy